Regional Weather Roundup
Issued by NWS

Home | Current Version | Previous Version | Text Only | Print | Product List | Glossary Off
Versions: 1 2 3 4 5 6 7 8 9 10 11 12 13 14 15 16 17 18 19 20 21 22 23 24 25 26 27 28 29 30 31 32 33 34 35 36 37

000
ASUS45 KCYS 220510
RWRWY

WYOMING REGIONAL WEATHER ROUNDUP
NATIONAL WEATHER SERVICE CHEYENNE WY
1100 PM MDT TUE OCT 21 2014

NOTE:  "FAIR" INDICATES FEW OR NO CLOUDS BELOW 12,000 FEET
WITH NO SIGNIFICANT WEATHER AND/OR OBSTRUCTIONS TO VISIBILITY.

WYZ001-220600-
YELLOWSTONE NATIONAL PARK

CITY           SKY/WX    TMP DP  RH WIND       PRES   REMARKS
LK YELLOWSTONE   N/A     29  28  96 CALM      30.11S
W YELLOWSTONE  NOT AVBL

$$
WYZ002>013-054>058-071-098>099-220600-
NORTHERN WYOMING

CITY           SKY/WX    TMP DP  RH WIND       PRES   REMARKS
JACKSON        CLOUDY    37  30  75 S8        30.09R WCI  31
CODY           CLEAR    N/A N/A N/A W16G26    29.95R
GREYBULL       CLEAR     51  21  30 NW7       29.92R
WORLAND        LGT RAIN  41  24  51 E8        29.93R
SHERIDAN       CLOUDY    55  21  26 NW25G36   29.87R
BUFFALO        MOCLDY    56  27  32 NW8       29.91R
GILLETTE       CLOUDY    60  35  39 W14       29.85R
HULETT         MOCLDY    63  34  34 CALM      29.84
NEWCASTLE      FAIR      59  34  38 MISG      29.86

$$
WYZ014>020-022>026-101>103-220600-
CENTRAL WYOMING

CITY           SKY/WX    TMP DP  RH WIND       PRES   REMARKS
BIG PINEY      CLEAR     32  24  72 VRB3      30.10R
PINEDALE       PTCLDY    30  27  86 CALM      30.11R
DUBOIS         FAIR      34  21  60 N8        30.05R WCI  27
LANDER         CLEAR     41  23  48 SE5       29.99R
RIVERTON       CLEAR     45  22  40 NW23G32   29.97R
CASPER         PTCLDY    52  38  58 SW12      29.95R
DOUGLAS        CLOUDY    57  38  48 W7        29.93R

$$
WYZ021-027>030-104>119-220600-
SOUTHERN WYOMING

CITY           SKY/WX    TMP DP  RH WIND       PRES   REMARKS
EVANSTON       CLEAR     40  22  48 W3        30.12S
KEMMERER       CLEAR     34  27  75 SW3       30.13R
FORT BRIDGER   FAIR      38  28  66 W6        30.16R WCI  33
ROCK SPRINGS   CLOUDY    42  31  64 W18G29    30.12R
DIXON          RAIN      46  43  89 S12       30.16R
RAWLINS        CLOUDY    46  40  79 SW10      30.08S
SARATOGA       CLOUDY    43  37  81 SW3       30.12R
LARAMIE        LGT RAIN  44  40  85 N12       30.08R
CHEYENNE       CLOUDY    53  42  66 S5        30.01R
TORRINGTON     CLOUDY    58  44  60 W6        29.90R
PINE BLUFFS    RAIN      54  45  71 W7        30.00R

$$



USA.gov is the U.S. government's official web portal to all federal, state and local government web resources and services.